Hourly Data Report for October 26, 2016

All times are specified in Local Standard Time (LST). Add 1 hour to adjust for Daylight Saving Time where and when it is observed.

SAINT JOHN A
NEW BRUNSWICK

45°18'58.000" N
65°53'24.000" W
108.80 m
8104901
71609
YSJ

Download Data

Hourly Data (October 2016)
Hourly Data Report for October 26, 2016
Temp Definition
°C
Dew Point Temp Definition
°C
Rel Hum Definition
%
Wind Dir Definition
10's deg

Wind Spd Definition
km/h
Visibility Definition
km
Stn Press Definition
kPa
Hmdx Definition


Wind Chill Definition


Weather Definition


TIME
00:00 Legend Double Dagger 4.1 4.1 100 33 14 3.2 100.23     Rain,Fog
01:00 Legend Double Dagger 4.4 4.1 98 34 17 4.8 100.25     Rain,Fog
02:00 Legend Double Dagger 4.2 3.9 98 35 22 6.4 100.28     Fog
03:00 Legend Double Dagger 4.1 3.5 96 36 28 6.4 100.32     Fog
04:00 Legend Double Dagger 4.0 3.4 96 36 25 6.4 100.37     Fog
05:00 Legend Double Dagger 3.9 3.2 95 36 26 8.1 100.45     Fog
06:00 Legend Double Dagger 3.6 3.3 98 35 19 8.1 100.53     Fog
07:00 Legend Double Dagger 3.5 3.1 97 35 22 12.9 100.62     LegendNANA
08:00 Legend Double Dagger 3.6 2.7 94 35 21 19.3 100.71     Cloudy
09:00 Legend Double Dagger 3.8 2.9 94 35 27 19.3 100.75     LegendNANA
10:00 Legend Double Dagger 4.5 2.9 89 35 25 19.3 100.79     LegendNANA
11:00 Legend Double Dagger 5.2 2.9 85 36 25 16.1 100.83     Rain
12:00 Legend Double Dagger 5.8 3.2 83 36 27 24.1 100.80     LegendNANA
13:00 Legend Double Dagger 6.7 3.3 79 36 24 24.1 100.83     LegendNANA
14:00 Legend Double Dagger 6.3 4.0 85 35 29 19.3 100.85     Rain
15:00 Legend Double Dagger 6.4 3.4 81 36 29 16.1 100.90     Rain
16:00 Legend Double Dagger 5.3 4.6 95 36 22 9.7 100.98     Rain
17:00 Legend Double Dagger 5.0 3.0 87 36 30 19.3 101.01     Mostly Cloudy
18:00 Legend Double Dagger 4.6 2.6 87 36 27 24.1 101.12     LegendNANA
19:00 Legend Double Dagger 4.5 2.7 88 1 23 24.1 101.15     LegendNANA
20:00 Legend Double Dagger 4.4 2.3 86 2 25 24.1 101.23     Cloudy
21:00 Legend Double Dagger 4.0 2.0 87 2 21 24.1 101.30     LegendNANA
22:00 Legend Double Dagger 3.5 2.0 90 1 26 24.1 101.33     LegendNANA
23:00 Legend Double Dagger 3.2 1.6 89 35 24 24.1 101.36     Mostly Cloudy

Notes on Data Quality.

Legend

  • E = Estimated
  • M = Missing
  • NA = Not Available
  • ‡ = Partner data that is not subject to review by the National Climate Archives
Date modified: